COSMOS 249 DEB, 3506

Orbit data source: Space-Track

COSMOS 249 DEB, 3506 is space debris in LEO originally from a launch on Sun, 20 Oct 1968 UTC launched from the Tyuratam Missile And Space Complex (TTMTR). Debris objects in space refer to the collection of defunct objects orbiting the Earth. Examples of debris include non-operational satellites, rocket bodies, and fragments generated from explosions, collisions, or faulty payload assembly.

Loading next visibility...
Identifier
3506, 1968-091C
Orbit
LEO
Country
Flag of CISCIS
Related business
Manufacturer
Unknown
Mission
Spacecraft
Bus & Motor
Unknown
Mass
Unknown
Launch date (UTC)
1968-10-20 (57 years ago)
Launch vehicle
Unknown
Launch site
Tyuratam Missile And Space Complex (TTMTR)
Object type
Payload
Rocket body
Debris
Shape & HBR
Unknown shape, 0.6 m
Radar Cross Section
Medium (>0.1 m² and <1 m²)

Expand to show TLE details & history
Last TLE update: 2 days ago

TLE from 2 days ago
0 COSMOS 249 DEB
1  3506U 68091C   25312.76094027  .00000655  00000-0  34371-3 0  9993
2  3506  62.3669  81.9015 0948873 219.4911 133.3109 12.90991264678024
Epoch: 2025-11-08T18:15Z
TLE epoch observation values (Epoch: 2025-11-08T18:15:45.239Z)
Latitude
-0.00008°
Longitude
119.77704°
Altitude
1,832.055 km
Speed
6.723 km/s
True Right ascension
05h 27m 36s
True Declination
0° 00' 00"
Sunlit
Object was in full shadow at epoch
Visualization orbit readout
Latitude
Unknown
Longitude
Unknown
Altitude
Unknown
Speed
Unknown
Apparent Right ascension
Unknown
Apparent Declination
Unknown
Sunlit
N/A
Visualization observer readout
Local Sidereal Time
04:02:56
Azimuth
Unknown
Elevation
Unknown
Doppler factor
Unknown
Orbital elements
Apogee altitude
2,024.797 km
Perigee altitude
568.334 km
Semi-major axis
7,674.703 km
Eccentricity
0.09489
Inclination
62.3669°
RAAN
81.9015°
Arg. of periapsis
219.4911°
True anomaly
140.60636°
Mean anomaly
133.3109°
Eccentric anomaly
137.01747°
Mean motion
3.22813 °/min
Orbital period
111.52 mins
BSTAR
0.00034371
Loading maneuver chart data...
Computing Atmospheric mass density...

Documentation

Showing up to 5 results
|